APRIZESAT 3

Satellite information

Favourite Embed

Satellite Type and Status

PAYLOADIN ORBIT

Key statistics

Satellite APRIZESAT 3 at a glance.

Uptime

5762

Days in orbit

Revolutions

≈ 14.9

Per day

Orbit

SSO

Sun Synchronous Orbit

Inclination

98.1

Latest

Satellite identification and parameters

Extended collection of information and parameters for APRIZESAT 3.

Object identification

Identified? True

Debris? False

Object name: APRIZESAT 3

International designator: 2009-041F

Object number (NORAD): 35686

Object ID (CCSDS): 35686

Country: UNITED STATES OF AMERICA (US)

Current information (Y/N): Y

RCS size: MEDIUM

Orbital parameters

Period: 96.362 minutes

Inclination: 98.1498 deg

SMA: 6962.494 km

Apoapsis: 628.231 km

Periapsis: 540.487 km

RAAN: 258.7549 deg

Eccentricy: 0.0063012

Argument of periapsis: 325.4046 deg

Mean anomaly: 34.308 deg

Mean motion: 14.9436086 rev/day

Mean motion (dot): 0.00002179 rev/day2

B* drag term: 0.00020082 1/REarth

Two-line elements (TLE)

Creation date: May 8, 2025, 3:01 a.m.

Reference frame: TEME

Reference center: EARTH

Epoch: May 7, 2025, 9:58 p.m. UTC

TLE line 0: 0 APRIZESAT 3

TLE line 1: 1 35686U 09041F 25127.91566176 .00002179 00000-0 20082-3 0 9994

TLE line 2: 2 35686 98.1498 258.7549 0063012 325.4046 34.3080 14.94360860855811

Live tracking on map

Real-time ground track for satellite APRIZESAT 3.

In-orbit conjunctions

There are no conjunctions computed for APRIZESAT 3, at the moment. Check back to stay up to date, as we update our databases every day.

Go to all conjunctions

Associated space launch

Emirati Earth observation satellite. Launched with 5 secondary payloads.

APRIZESAT 3 was lifted into orbit during the mission ‘Dnepr | DubaiSat 1’, on board a Dnepr space rocket.

The launch took place on July 29, 2009, 6:46 p.m. from 109/95.

For more information about the launch, click the button.

Launch to space Dnepr | DubaiSat 1
Dnepr | DubaiSat 1

Agency: N/A

Status: Launch Successful

Launch date: July 29, 2009, 6:46 p.m. UTC

Rocket: Dnepr

Launch pad: 109/95

Location: Baikonur Cosmodrome, Republic of Kazakhstan

...

Latest news about this satellite

There are no fresh news available about this satellite. Check back as we update our databases every day.


Newsletter sign-up

Weekly statistics, charts and insights to help you stay on top of the space industry.